Date,TemperatureHighF,TemperatureAvgF,TemperatureLowF,DewpointHighF,DewpointAvgF,DewpointLowF,HumidityHigh,HumidityAvg,HumidityLow,PressureMaxIn,PressureMinIn,WindSpeedMaxMPH,WindSpeedAvgMPH,GustSpeedMaxMPH,PrecipitationSumIn
2012-2-18,84.0,70.9,58.0,70.0,64.0,57.0,97,80,58,30.01,29.88,5,1,9,0.00
2012-2-19,83.0,72.9,63.0,74.0,68.5,62.0,98,87,72,29.96,29.86,10,2,15,0.00
2012-2-20,78.0,67.3,57.0,64.0,56.8,53.0,93,71,47,30.16,29.94,5,1,8,0.00
2012-2-21,82.0,65.5,51.0,64.0,57.3,49.0,96,77,47,30.20,30.09,7,1,10,0.00
2012-2-22,83.0,67.7,54.0,66.0,60.7,53.0,98,80,52,30.13,29.95,6,1,11,0.00
2012-2-23,86.0,70.7,58.0,72.0,64.6,57.0,100,83,56,29.99,29.92,6,1,12,0.00
2012-2-24,88.0,73.9,64.0,74.0,66.8,62.0,98,81,51,30.03,29.93,8,1,12,0.01
2012-2-25,80.0,69.5,63.0,73.0,63.8,55.0,98,83,65,30.17,30.01,6,1,10,0.01
2012-2-26,82.0,70.5,62.0,70.0,62.8,53.0,91,77,65,30.23,30.14,6,2,11,0.00
2012-2-27,86.0,74.1,67.0,72.0,68.4,65.0,95,84,58,30.25,30.15,5,1,7,0.38
2012-2-28,87.0,74.0,64.0,72.0,67.8,63.0,98,83,51,30.25,30.12,6,1,9,0.84
2012-2-29,89.0,73.5,61.0,72.0,67.2,60.0,98,82,55,30.19,30.06,5,1,10,0.01
2012-3-1,86.0,72.3,62.0,72.0,66.0,61.0,98,82,57,30.11,30.00,4,1,9,0.00
2012-3-2,86.0,71.8,59.0,72.0,66.0,58.0,98,83,58,30.04,29.95,5,1,10,0.00
2012-3-3,86.0,74.5,64.0,73.0,68.7,63.0,98,83,60,29.96,29.83,8,1,11,0.01
2012-3-4,78.0,68.8,49.0,74.0,56.5,37.0,95,68,31,30.20,29.81,8,2,14,0.16
2012-3-5,76.0,58.2,42.0,45.0,40.1,35.0,91,57,24,30.35,30.20,7,1,11,0.16
2012-3-6,80.0,63.6,45.0,61.0,51.9,43.0,95,69,41,30.35,30.25,12,2,19,0.00
2012-3-7,83.0,71.5,63.0,67.0,62.8,58.0,87,75,58,30.31,30.19,8,2,17,0.00
2012-3-8,69.0,66.4,64.0,66.0,64.2,63.0,96,92,87,30.24,30.17,5,0,10,0.00
2012-3-9,78.0,71.6,67.0,73.0,69.2,66.0,96,92,83,30.15,30.08,2,0,6,0.80
2012-3-10,86.0,71.9,61.0,72.0,66.7,60.0,98,85,57,30.17,30.08,7,1,9,0.08
2012-3-11,84.0,74.2,65.0,70.0,65.4,-99.9,97,79,55,30.23,30.14,7,1,11,0.01
2012-3-12,84.0,72.8,64.0,66.0,63.6,58.0,94,74,51,30.25,30.14,8,2,12,0.00
2012-3-13,84.0,70.1,58.0,65.0,60.3,56.0,97,74,47,30.21,30.11,6,1,11,0.00
2012-3-14,84.0,72.9,57.0,66.0,62.0,56.0,97,71,50,30.20,30.09,6,1,10,0.00
2012-3-15,83.0,69.9,61.0,70.0,64.4,58.0,96,83,58,30.19,30.11,6,1,11,0.03
2012-3-16,85.0,70.5,62.0,70.0,64.9,61.0,97,84,49,30.19,30.09,5,1,10,0.26
2012-3-17,85.0,70.9,57.0,67.0,60.0,56.0,98,73,41,30.21,30.08,5,1,10,0.25
2012-3-18,86.0,70.8,55.0,66.0,60.1,54.0,97,72,38,30.21,30.08,5,1,9,0.00
2012-3-19,85.0,72.3,59.0,69.0,61.6,58.0,97,72,43,30.15,30.01,6,1,10,0.00
2012-3-20,85.0,71.6,59.0,67.0,60.2,-99.9,96,71,45,30.08,29.98,5,1,11,0.00
2012-3-21,87.0,72.7,59.0,71.0,64.5,57.0,97,77,53,30.10,29.98,6,1,12,0.00
2012-3-22,87.0,75.0,67.0,71.0,65.4,-99.9,95,75,50,30.12,30.01,8,-6,10,0.00
2012-3-23,87.0,72.9,61.0,69.0,64.5,60.0,97,77,47,30.11,29.99,4,1,10,0.00
2012-3-24,86.0,72.9,60.0,68.0,65.0,59.0,97,79,51,30.04,29.92,7,1,13,0.00
2012-3-25,81.0,69.7,62.0,71.0,65.0,60.0,97,86,63,29.97,29.84,9,1,14,0.03
2012-3-26,85.0,69.5,54.0,66.0,57.8,53.0,98,71,33,30.00,29.90,7,1,10,0.01
2012-3-27,86.0,69.9,54.0,67.0,59.6,52.0,97,73,46,30.14,29.98,5,1,11,0.00
2012-3-28,87.0,71.4,53.0,66.0,58.5,52.0,97,68,34,30.15,30.02,6,1,11,0.00
2012-3-29,87.0,70.8,57.0,66.0,61.3,56.0,97,75,39,30.06,29.95,3,1,9,0.00
2012-3-30,88.0,70.7,54.0,67.0,60.8,53.0,97,75,36,30.06,29.96,7,1,10,0.00
2012-3-31,87.0,72.8,59.0,73.0,66.6,58.0,97,82,58,30.00,29.89,8,1,14,0.00
2012-4-1,89.0,74.8,62.0,70.0,65.8,61.0,98,77,42,29.94,29.86,8,1,11,0.00
2012-4-2,89.0,71.9,59.0,71.0,62.2,56.0,98,76,35,29.92,29.85,6,1,10,0.00
2012-4-3,92.0,72.4,56.0,68.0,61.3,55.0,97,72,39,29.97,29.88,4,1,12,0.00
2012-4-4,90.0,74.3,61.0,72.0,65.1,59.0,97,76,43,29.96,29.81,4,1,10,0.00
2012-4-5,86.0,74.5,67.0,73.0,68.9,66.0,96,84,60,29.88,29.75,9,2,14,0.02
2012-4-6,84.0,76.1,66.0,75.0,67.7,59.0,95,76,63,29.91,29.73,9,2,14,0.50
2012-4-7,84.0,71.9,60.0,65.0,61.6,58.0,92,72,47,30.09,29.91,6,2,11,0.15
2012-4-8,86.0,71.6,58.0,62.0,58.5,55.0,91,66,39,30.13,30.02,5,1,9,0.00
2012-4-9,86.0,70.5,56.0,63.0,58.4,54.0,95,70,36,30.08,29.96,4,0,9,0.00
2012-4-10,87.0,70.9,58.0,67.0,61.8,57.0,96,76,45,30.08,29.96,5,1,9,0.00
2012-4-11,86.0,73.4,62.0,67.0,63.6,60.0,96,74,45,30.06,29.97,10,1,11,0.00
2012-4-12,74.0,65.2,59.0,63.0,59.8,57.0,94,84,67,30.03,29.98,3,1,4,0.00
2012-4-13,89.0,74.5,61.0,70.0,63.9,59.0,97,73,41,30.08,29.98,6,1,11,0.00
2012-4-14,79.0,72.1,66.0,70.0,66.1,62.0,94,82,68,30.18,30.05,7,1,13,0.00
2012-4-15,85.0,72.5,60.0,64.0,60.3,-99.9,95,70,45,30.18,30.09,7,1,10,0.00
2012-4-16,86.0,73.5,58.0,66.0,61.4,56.0,96,68,38,30.16,30.08,7,1,14,0.00
2012-4-17,87.0,74.6,61.0,67.0,61.9,58.0,93,68,40,30.14,30.01,8,1,10,0.00
2012-4-18,88.0,73.7,60.0,69.0,63.9,58.0,95,74,45,30.08,29.93,6,1,10,0.00
2012-4-19,88.0,76.4,67.0,71.0,67.7,65.0,93,77,49,29.98,29.87,8,1,10,0.00
2012-4-20,89.0,78.0,66.0,72.0,69.2,65.0,96,76,53,29.92,29.81,6,1,12,0.00
2012-4-21,72.0,69.4,67.0,69.0,67.2,66.0,96,92,83,29.88,29.63,4,1,12,0.60
2012-4-22,71.0,68.6,66.0,70.0,60.0,-99.9,97,95,93,29.63,29.57,6,2,8,0.75
2012-4-26,79.0,69.9,62.0,62.0,60.7,59.0,89,74,55,30.09,30.03,3,0,7,0.00
2012-4-27,87.0,71.9,54.0,69.0,62.5,53.0,97,75,50,30.11,29.99,5,1,8,0.00
2012-4-28,88.0,74.7,66.0,74.0,69.1,64.0,96,84,56,30.07,30.00,7,1,11,0.03
2012-4-29,76.0,71.9,70.0,72.0,68.3,-99.9,96,90,85,30.06,29.97,5,1,10,0.23
2012-4-30,81.0,74.0,70.0,74.0,69.3,66.0,94,85,68,30.04,29.95,9,2,17,0.22
2012-5-1,88.0,76.7,71.0,74.0,71.1,69.0,94,83,63,30.03,29.95,5,2,14,0.09
2012-5-2,87.0,77.6,70.0,74.0,70.8,68.0,96,81,62,30.05,29.97,8,1,10,0.01
2012-5-3,90.0,78.6,69.0,74.0,70.0,67.0,95,77,50,30.07,29.98,5,1,16,0.01
2012-5-4,91.0,77.3,67.0,72.0,69.4,65.0,96,78,49,30.07,29.96,5,1,7,0.00
2012-5-5,88.0,76.5,63.0,73.0,68.6,62.0,97,78,55,30.02,29.92,7,1,11,0.00
2012-5-6,89.0,76.2,65.0,72.0,67.9,-99.9,97,79,52,29.98,29.88,5,1,9,0.00
2012-5-7,88.0,76.1,65.0,73.0,68.8,64.0,97,80,58,29.93,29.84,7,1,13,0.00
2012-5-8,89.0,76.7,66.0,74.0,69.5,65.0,97,80,56,29.91,29.84,9,1,12,0.00
2012-5-9,89.0,78.0,66.0,75.0,70.6,65.0,96,80,55,29.90,29.80,9,2,11,0.01
2012-5-10,84.0,75.9,73.0,74.0,72.1,71.0,94,88,69,29.84,29.79,3,0,6,0.01
2012-5-13,90.0,80.6,70.0,75.0,69.0,64.0,96,71,43,30.09,29.96,7,1,11,0.46
2012-5-14,92.0,78.2,69.0,76.0,70.3,67.0,97,79,46,30.05,29.90,4,1,9,0.46
2012-5-15,89.0,76.3,70.0,76.0,71.1,66.0,95,85,59,30.01,29.93,4,0,8,0.46
2012-5-16,81.0,74.2,69.0,74.0,70.9,68.0,97,90,73,30.01,29.90,3,0,3,0.14
2012-5-17,86.0,76.6,70.0,75.0,71.7,68.0,97,86,67,29.96,29.87,6,1,10,0.16
2012-5-18,89.0,78.9,71.0,75.0,71.9,69.0,97,81,60,29.93,29.86,5,1,10,0.01
2012-5-19,90.0,77.0,68.0,74.0,69.3,66.0,97,79,50,29.95,29.84,7,1,8,0.03
2012-5-20,89.0,76.6,67.0,74.0,68.9,-99.9,97,81,55,29.96,29.87,6,1,10,0.03
2012-5-21,90.0,78.1,67.0,74.0,70.3,66.0,96,79,52,29.98,29.89,5,1,8,0.01
2012-5-22,93.0,78.2,66.0,73.0,67.5,63.0,96,73,41,29.96,29.87,6,1,12,0.00
2012-5-23,92.0,78.4,69.0,74.0,71.4,67.0,95,81,49,29.92,29.78,8,1,10,0.10
2012-5-24,89.0,79.1,70.0,76.0,72.3,69.0,97,81,62,29.90,29.80,9,1,12,0.10
2012-5-25,93.0,79.7,70.0,78.0,72.3,68.0,96,80,52,30.02,29.87,3,1,19,1.49
2012-5-26,94.0,80.0,69.0,77.0,71.4,65.0,98,78,40,30.03,29.91,4,1,10,1.49
2012-5-27,92.0,80.3,68.0,76.0,72.2,67.0,96,78,50,29.97,29.85,9,1,10,0.01
2012-5-28,91.0,81.0,70.0,77.0,72.1,68.0,97,77,51,29.95,29.86,6,1,10,0.00
2012-5-29,91.0,80.3,71.0,76.0,72.2,69.0,96,78,56,29.96,29.89,7,2,12,0.00
2012-5-30,91.0,79.8,68.0,76.0,71.9,67.0,97,79,57,29.95,29.83,8,2,10,0.00
2012-5-31,89.0,78.2,70.0,76.0,71.9,68.0,96,82,51,29.94,29.85,5,1,8,0.00
2012-6-1,83.0,76.7,72.0,77.0,73.6,71.0,97,91,77,29.96,29.85,6,1,10,0.25
2012-6-2,88.0,80.5,73.0,78.0,74.0,71.0,97,82,61,29.98,29.87,7,1,10,0.22
2012-6-3,92.0,78.4,68.0,77.0,69.8,-99.9,97,80,56,30.03,29.93,6,1,9,0.06
2012-6-4,90.0,84.9,78.0,77.0,75.6,74.0,90,74,61,29.96,29.88,8,2,13,0.00
2012-6-5,91.0,82.7,77.0,78.0,76.0,74.0,94,81,60,29.90,29.80,7,1,12,0.00
2012-6-6,86.0,79.3,70.0,79.0,74.7,68.0,96,86,72,29.93,29.84,4,0,10,0.13
2012-6-7,91.0,82.5,75.0,77.0,74.9,69.0,95,79,60,29.96,29.88,6,1,11,0.06
2012-6-8,93.0,82.5,76.0,79.0,76.1,72.0,96,82,59,29.96,29.88,5,1,10,0.00
2012-6-9,94.0,81.6,71.0,79.0,74.6,70.0,97,81,58,30.01,29.90,8,1,10,0.65
2012-6-10,95.0,80.3,72.0,80.0,74.1,-99.9,97,86,53,30.10,29.97,5,1,11,1.83
2012-6-11,93.0,82.5,73.0,78.0,74.2,70.0,97,78,56,30.09,30.01,7,1,10,0.51
2012-6-12,94.0,81.1,68.0,76.0,71.4,66.0,97,74,48,30.06,29.93,3,1,9,0.01
2012-6-13,94.0,81.8,70.0,76.0,72.9,68.0,95,76,52,29.98,29.88,7,1,10,0.00
2012-6-14,92.0,83.7,74.0,78.0,74.8,72.0,94,76,60,29.98,29.89,5,2,10,0.00
2012-6-15,95.0,80.5,70.0,77.0,72.1,68.0,96,78,46,30.02,29.89,7,1,11,0.89
2012-6-16,91.0,80.6,72.0,76.0,72.7,70.0,97,79,55,30.01,29.93,10,1,11,0.94
2012-6-17,90.0,78.1,68.0,73.0,67.4,-99.9,97,74,49,30.01,29.89,9,1,12,0.06
2012-6-18,90.0,79.0,66.0,71.0,66.7,64.0,95,69,45,30.00,29.92,8,2,16,0.00
2012-6-19,86.0,78.8,71.0,73.0,69.9,67.0,88,75,61,30.01,29.93,5,2,15,0.00
2012-6-20,83.0,78.5,75.0,77.0,74.2,72.0,94,87,77,29.97,29.91,4,1,10,0.02
2012-6-21,88.0,77.7,74.0,77.0,74.2,72.0,96,89,67,29.96,29.84,4,1,10,0.36
2012-6-22,81.0,76.4,74.0,77.0,74.6,73.0,97,94,84,29.94,29.80,2,0,6,0.71
2012-6-23,80.0,75.7,72.0,78.0,74.1,71.0,97,95,89,29.93,29.83,5,0,8,0.81
2012-6-24,83.0,78.8,74.0,80.0,76.5,72.0,97,93,87,29.92,29.76,10,2,13,0.91
2012-6-25,86.0,81.8,74.0,78.0,76.3,72.0,95,84,73,29.80,29.71,19,3,19,0.25
2012-6-26,87.0,81.9,77.0,79.0,76.7,74.0,94,85,75,29.75,29.67,17,3,17,0.35
2012-6-27,88.0,82.7,76.0,80.0,77.2,74.0,94,84,72,29.98,29.75,12,3,18,0.02
2012-6-28,93.0,81.1,70.0,76.0,73.7,69.0,97,80,57,30.06,29.98,5,1,8,0.01
2012-6-29,94.0,82.0,70.0,75.0,72.3,69.0,97,75,46,30.04,29.94,5,1,10,0.00
2012-6-30,92.0,83.2,72.0,78.0,74.8,70.0,95,77,60,30.01,29.93,6,1,10,0.00
2012-7-1,95.0,82.1,71.0,80.0,74.7,70.0,97,80,56,30.07,29.98,6,1,8,0.03
2012-7-2,87.0,77.6,73.0,78.0,74.2,71.0,97,90,69,30.11,30.02,3,0,4,0.03
2012-7-5,93.0,79.2,70.0,77.0,72.2,68.0,96,81,50,30.05,29.97,4,0,9,0.00
2012-7-6,92.0,78.1,70.0,79.0,73.0,68.0,96,86,56,30.03,29.98,4,0,6,0.00
2012-7-7,95.0,78.6,70.0,78.0,73.4,69.0,97,86,50,30.06,30.00,4,0,10,1.09
2012-7-8,95.0,79.4,71.0,78.0,73.4,70.0,98,84,49,30.06,29.99,5,0,10,1.33
2012-7-9,94.0,79.1,70.0,78.0,72.8,69.0,98,83,53,30.03,29.94,8,1,10,0.17
2012-7-10,92.0,79.1,72.0,78.0,73.5,70.0,97,84,59,30.02,29.92,3,1,9,0.01
2012-7-11,90.0,78.9,72.0,77.0,73.6,70.0,96,85,60,30.03,29.94,3,0,6,0.35
2012-7-12,91.0,79.5,74.0,77.0,74.7,73.0,97,87,57,30.01,29.93,3,0,7,0.34
2012-7-13,89.0,77.9,73.0,78.0,74.9,72.0,98,91,66,30.04,29.95,4,0,11,0.81
2012-7-14,90.0,77.6,71.0,78.0,74.3,70.0,98,90,65,30.06,29.96,5,0,8,0.32
2012-7-15,90.0,77.7,71.0,79.0,73.8,70.0,98,89,57,30.09,30.00,5,0,10,0.30
2012-7-16,88.0,76.0,71.0,77.0,73.5,70.0,98,93,69,30.08,29.96,2,0,5,0.73
2012-7-17,87.0,79.4,73.0,77.0,74.3,72.0,98,85,66,30.04,29.95,7,1,9,0.05
2012-7-18,95.0,82.4,71.0,79.0,75.2,70.0,98,81,54,30.11,29.99,7,1,9,0.01
2012-7-19,96.0,84.3,74.0,82.0,77.3,73.0,98,81,51,30.15,30.06,6,1,8,0.00
2012-7-20,96.0,83.3,73.0,80.0,75.9,71.0,98,81,44,30.12,29.99,3,1,9,0.96
2012-7-21,95.0,81.0,73.0,81.0,75.7,72.0,98,86,55,30.08,30.00,7,1,7,0.97
2012-7-22,89.0,77.8,73.0,80.0,75.1,72.0,97,92,73,30.11,30.02,4,0,7,0.17
2012-7-23,93.0,81.0,73.0,80.0,75.7,72.0,98,85,60,30.13,30.07,4,1,9,0.18
2012-7-25,94.0,83.3,73.0,81.0,76.1,72.0,97,81,57,30.05,29.98,4,1,8,0.00
2012-7-26,93.0,82.7,73.0,79.0,76.1,72.0,98,82,61,30.03,29.97,7,1,9,0.00
2012-7-27,94.0,81.1,73.0,81.0,75.4,72.0,97,84,57,30.07,29.98,5,0,8,0.04
2012-7-28,91.0,80.0,73.0,80.0,75.5,72.0,97,87,65,30.10,30.01,5,0,7,1.24
2012-7-29,93.0,82.7,74.0,80.0,75.9,73.0,98,82,61,30.07,29.98,4,1,9,0.03
2012-7-30,96.0,81.8,73.0,79.0,75.3,71.0,96,82,56,30.05,29.97,6,1,11,0.00
2012-7-31,93.0,80.7,72.0,80.0,75.0,70.0,96,84,58,30.04,29.96,3,0,8,0.93
2012-8-1,94.0,83.8,73.0,79.0,75.7,71.0,97,78,57,30.01,29.93,4,1,10,0.01
2012-8-2,95.0,83.3,73.0,78.0,74.9,71.0,96,78,53,29.99,29.90,4,1,8,0.00
2012-8-3,97.0,80.6,72.0,78.0,73.3,70.0,96,81,42,29.99,29.91,3,0,8,0.11
2012-8-4,95.0,81.4,72.0,79.0,74.2,71.0,97,81,51,30.04,29.93,3,0,8,0.03
2012-8-5,94.0,80.3,73.0,80.0,75.1,71.0,96,86,55,30.06,29.99,5,0,7,0.02
2012-8-6,93.0,79.5,75.0,79.0,75.2,73.0,96,88,61,30.05,29.95,6,1,12,0.31
2012-8-7,95.0,83.4,74.0,81.0,75.9,73.0,97,80,51,30.03,29.93,4,1,9,0.07
2012-8-8,96.0,82.2,73.0,80.0,75.4,70.0,96,82,53,30.03,29.92,5,1,10,0.70
2012-8-9,95.0,81.3,72.0,80.0,75.4,71.0,97,84,56,30.03,29.87,6,1,10,1.91
2012-8-10,92.0,77.7,71.0,79.0,73.4,70.0,98,88,56,29.99,29.91,3,0,9,1.98
2012-8-11,92.0,79.0,73.0,79.0,73.4,-99.9,97,86,59,30.03,29.92,5,1,8,0.21
2012-8-12,89.0,79.6,75.0,79.0,75.6,73.0,97,88,69,30.06,29.95,3,0,8,0.59
2012-8-13,92.0,86.4,75.0,81.0,77.1,73.0,95,75,64,30.06,29.97,3,1,10,0.02
2012-8-14,96.0,80.8,73.0,81.0,75.3,72.0,97,85,55,30.04,29.94,5,0,12,0.67
2012-8-15,94.0,79.1,73.0,80.0,75.1,72.0,97,89,62,30.03,29.96,2,0,5,0.66
2012-8-16,90.0,85.4,78.0,79.0,77.7,75.0,93,79,66,30.06,29.98,3,1,7,0.14
2012-8-17,78.0,78.0,78.0,76.0,76.0,76.0,94,93,93,30.04,30.04,0,0,0,0.00
2012-8-19,94.0,87.7,77.0,79.0,76.4,74.0,92,70,57,30.00,29.91,5,1,10,0.00
2012-8-20,94.0,83.6,74.0,80.0,76.1,73.0,97,80,58,30.00,29.91,6,1,11,0.00
2012-8-21,93.0,82.2,74.0,79.0,75.4,72.0,96,82,56,30.07,29.96,5,1,17,1.00
2012-8-22,94.0,81.0,71.0,78.0,73.9,70.0,97,81,55,30.11,29.99,4,1,17,2.58
2012-8-23,95.0,79.1,71.0,78.0,72.5,70.0,96,82,50,30.07,29.96,4,0,11,0.23
2012-8-24,93.0,80.4,71.0,78.0,72.6,69.0,97,79,55,30.02,29.91,6,1,10,0.23
2012-8-25,83.0,78.2,72.0,77.0,73.2,70.0,94,85,75,29.99,29.87,5,1,9,0.01
2012-8-26,82.0,78.1,75.0,77.0,75.5,73.0,97,92,82,29.89,29.65,11,3,17,2.19
2012-8-27,87.0,81.5,77.0,80.0,77.7,75.0,96,89,79,29.87,29.62,10,3,18,1.67
2012-8-28,90.0,83.9,79.0,81.0,78.4,77.0,94,84,71,29.97,29.86,6,1,13,0.04
2012-8-29,91.0,82.2,76.0,79.0,76.2,74.0,97,84,62,29.98,29.90,7,1,16,0.01
2012-8-30,93.0,80.5,73.0,79.0,75.3,72.0,97,86,58,30.08,29.94,4,0,8,0.56
2012-8-31,93.0,80.7,73.0,81.0,76.0,72.0,97,87,62,30.13,30.05,5,0,8,0.56
2012-9-1,93.0,82.1,73.0,79.0,74.9,72.0,97,81,54,30.11,29.99,3,0,8,0.01
2012-9-2,91.0,81.1,71.0,75.0,72.9,70.0,97,78,55,30.06,29.93,5,1,7,0.00
2012-9-3,93.0,80.5,69.0,78.0,72.8,68.0,97,79,52,30.03,29.94,5,1,10,0.00
2012-9-4,91.0,78.8,72.0,78.0,73.8,70.0,97,86,64,30.01,29.93,3,0,8,0.73
2012-9-5,91.0,79.9,71.0,79.0,74.0,70.0,97,84,63,30.00,29.91,7,1,12,0.28
2012-9-6,92.0,77.9,70.0,80.0,73.5,69.0,97,88,61,30.01,29.94,3,1,9,0.28
2012-9-8,92.0,84.9,73.0,80.0,76.4,72.0,97,77,61,29.97,29.88,9,2,10,0.00
2012-9-9,90.0,81.1,72.0,79.0,75.0,71.0,97,83,62,29.97,29.90,7,2,12,0.00
2012-9-10,90.0,80.3,74.0,80.0,75.9,73.0,97,87,67,30.01,29.92,4,1,10,0.09
2012-9-11,93.0,79.9,72.0,78.0,74.7,71.0,97,86,58,30.07,29.96,7,1,13,0.04
2012-9-12,91.0,81.4,74.0,76.0,73.9,72.0,96,80,54,30.06,29.96,7,1,10,0.03
2012-9-13,85.0,80.2,76.0,76.0,74.3,72.0,91,83,72,30.05,29.95,6,1,10,0.01
2012-9-14,92.0,78.9,72.0,77.0,73.6,70.0,97,85,59,30.02,29.91,5,0,9,1.46
2012-9-15,90.0,78.2,72.0,78.0,74.7,71.0,98,90,64,30.03,29.95,5,0,12,1.92
2012-9-16,88.0,78.8,74.0,79.0,74.9,73.0,97,89,70,30.02,29.92,3,0,7,0.49
2012-9-17,89.0,78.9,72.0,79.0,74.9,71.0,98,88,68,29.98,29.89,4,0,9,0.07
2012-9-18,90.0,79.5,74.0,81.0,75.6,72.0,97,89,68,29.98,29.88,5,1,12,0.78
2012-9-19,91.0,80.1,73.0,79.0,74.1,72.0,97,84,55,30.03,29.92,6,0,6,0.23
2012-9-20,93.0,78.7,72.0,78.0,73.6,70.0,97,85,57,30.03,29.92,5,0,10,0.02
2012-9-21,90.0,77.2,72.0,78.0,73.1,70.0,96,89,64,29.98,29.87,4,0,9,0.87
2012-9-22,87.0,75.8,72.0,78.0,73.6,71.0,97,93,68,30.02,29.91,2,0,6,1.11
2012-9-23,73.0,69.9,72.0,72.0,65.0,-99.9,97,96,96,30.02,29.98,0,0,1,0.27
2012-9-25,86.0,80.6,73.0,76.0,73.6,70.0,96,80,69,30.06,29.97,4,0,7,0.16
2012-9-26,88.0,78.6,73.0,78.0,74.1,72.0,97,86,67,30.08,29.99,3,0,5,0.17
2012-9-27,92.0,79.1,70.0,78.0,72.6,69.0,97,82,55,30.08,29.96,4,0,8,0.00
2012-9-28,92.0,79.5,70.0,79.0,73.1,69.0,97,83,56,30.02,29.89,5,0,9,0.00
2012-9-29,93.0,79.9,70.0,78.0,73.1,69.0,97,81,55,29.97,29.83,4,1,7,0.00
2012-9-30,92.0,78.5,71.0,81.0,73.8,70.0,97,87,58,29.89,29.77,3,0,9,0.28
2012-10-1,85.0,77.3,73.0,80.0,75.5,72.0,97,94,84,29.83,29.74,3,0,10,0.59
2012-10-2,89.0,77.6,74.0,81.0,74.9,73.0,97,92,67,30.02,29.82,10,0,10,1.69
2012-10-3,92.0,80.6,74.0,82.0,76.3,73.0,97,88,63,30.15,30.01,4,0,10,0.22
2012-10-4,90.0,78.7,74.0,80.0,75.4,72.0,97,90,70,30.14,30.04,7,0,7,0.15
2012-10-5,93.0,79.5,72.0,79.0,75.0,70.0,97,87,58,30.09,29.89,5,0,10,0.15
2012-10-6,89.0,78.8,70.0,79.0,73.7,69.0,97,86,64,29.98,29.82,3,0,6,0.15
2012-10-7,92.0,78.2,73.0,77.0,73.5,71.0,97,87,58,29.96,29.86,4,0,11,0.30
2012-10-8,90.0,79.4,71.0,79.0,74.5,70.0,97,86,66,29.99,29.88,3,0,7,0.27
2012-10-14,87.0,80.9,75.0,76.0,74.3,72.0,92,81,64,29.99,29.92,6,2,11,0.03
2012-10-15,91.0,79.2,73.0,78.0,74.0,71.0,97,85,61,29.94,29.77,4,0,10,0.02
2012-10-16,89.0,77.8,70.0,74.0,70.9,68.0,96,81,55,29.85,29.75,3,0,7,0.00
2012-10-17,87.0,75.2,68.0,76.0,70.9,66.0,97,87,67,29.86,29.78,6,0,8,0.40
2012-10-18,88.0,77.3,71.0,78.0,73.4,70.0,97,88,68,29.87,29.78,6,0,9,0.44
2012-10-19,90.0,78.1,70.0,78.0,73.1,69.0,97,86,63,29.87,29.80,4,0,8,0.05
2012-10-20,88.0,77.0,68.0,76.0,71.3,66.0,97,84,60,29.93,29.82,3,0,7,0.05
2012-10-21,86.0,72.6,62.0,69.0,62.5,57.0,95,72,48,30.00,29.91,3,0,8,0.00
2012-10-22,87.0,73.3,62.0,70.0,65.4,60.0,95,78,55,30.02,29.91,7,1,12,0.00
2012-10-23,88.0,76.1,65.0,72.0,67.6,63.0,95,77,49,29.98,29.88,10,1,11,0.00
2012-10-24,88.0,77.4,71.0,73.0,70.0,68.0,94,79,55,29.96,29.81,7,1,11,0.00
2012-10-25,82.0,75.5,72.0,74.0,71.1,68.0,93,86,76,29.85,29.70,6,1,10,0.02
2012-10-26,85.0,76.3,70.0,72.0,68.8,65.0,91,78,57,29.72,29.56,10,2,14,0.02
2012-10-27,84.0,76.6,71.0,69.0,65.8,64.0,79,70,59,29.72,29.57,11,3,20,0.00
2012-10-28,81.0,74.4,70.0,69.0,64.4,58.0,85,71,57,29.79,29.70,12,2,17,0.00
2012-10-29,73.0,66.9,59.0,59.0,53.9,49.0,83,64,48,29.88,29.77,9,2,17,0.00
2012-10-30,74.0,63.8,52.0,56.0,51.1,44.0,91,64,49,29.98,29.82,11,1,17,0.00
2012-10-31,79.0,61.8,49.0,60.0,54.2,47.0,96,79,52,30.05,29.97,5,1,12,0.00
2012-11-1,81.0,63.3,50.0,67.0,56.5,49.0,97,81,55,30.05,29.97,4,1,11,0.00
2012-11-2,84.0,72.3,56.0,65.0,55.5,48.0,97,60,29,30.08,29.99,3,1,9,0.00
2012-11-3,86.0,65.1,48.0,64.0,55.0,47.0,97,75,32,30.13,30.03,4,0,8,0.00
2012-11-4,85.0,66.4,55.0,68.0,58.5,54.0,97,79,42,30.10,29.98,3,0,6,0.00
2012-11-5,82.0,68.5,60.0,68.0,63.2,58.0,96,84,57,30.02,29.91,3,0,7,0.00
2012-11-6,83.0,68.0,60.0,70.0,63.9,59.0,97,88,50,29.93,29.83,4,0,10,0.07
2012-11-7,74.0,63.5,54.0,63.0,57.0,51.0,97,80,57,29.99,29.85,9,1,14,0.01
2012-11-8,72.0,59.2,45.0,54.0,46.1,39.0,93,66,34,30.15,29.97,5,1,11,0.01
2012-11-9,77.0,59.9,44.0,56.0,49.3,42.0,95,72,36,30.21,30.11,5,1,9,0.00
2012-11-10,77.0,65.6,56.0,60.0,56.3,52.0,90,74,50,30.26,30.15,4,0,10,0.00
2012-11-11,82.0,68.1,55.0,64.0,58.8,53.0,95,74,48,30.22,30.14,6,1,11,0.00
2012-11-12,81.0,70.2,60.0,70.0,64.6,57.0,96,83,65,30.19,30.10,5,1,10,0.00
2012-11-13,82.0,70.1,62.0,70.0,64.7,61.0,96,84,60,30.13,30.04,5,0,7,0.00
2012-11-14,84.0,71.8,64.0,69.0,63.9,-99.9,96,79,57,30.12,30.02,4,0,7,0.00
2012-11-15,85.0,71.8,64.0,69.0,65.1,63.0,96,81,54,30.09,30.00,3,0,8,0.00
2012-11-16,75.0,65.9,62.0,65.0,61.8,60.0,95,87,70,30.11,30.02,6,0,8,0.00
2012-11-17,82.0,70.1,61.0,67.0,63.4,59.0,96,81,57,30.09,30.00,8,1,9,0.00
2012-11-18,78.0,69.0,63.0,68.0,63.4,59.0,93,83,69,30.12,30.04,7,1,13,0.00
2012-11-19,79.0,65.3,56.0,59.0,56.3,54.0,93,75,43,30.13,30.00,5,1,9,0.00
2012-11-20,75.0,63.8,58.0,64.0,59.1,55.0,94,85,67,30.06,29.94,5,1,9,0.00
2012-11-21,76.0,63.2,51.0,59.0,53.6,48.0,93,73,48,30.06,29.94,8,1,12,0.00
2012-11-22,76.0,60.9,46.0,52.0,45.5,38.0,95,62,27,30.14,30.03,6,1,11,0.00
2012-11-23,77.0,58.9,45.0,57.0,47.6,40.0,91,69,42,30.18,30.05,4,1,8,0.00
2012-11-24,79.0,59.2,42.0,61.0,51.9,40.0,97,80,41,30.11,30.00,4,0,10,0.00
2012-11-25,76.0,56.8,40.0,56.0,47.8,38.0,97,76,36,30.15,30.05,3,0,6,0.00
2012-11-26,83.0,61.4,43.0,64.0,54.1,41.0,97,80,47,30.19,30.08,3,0,6,0.00
2012-11-27,84.0,66.7,53.0,69.0,60.4,52.0,96,82,52,30.17,30.07,4,0,8,0.00
2012-11-28,78.0,67.5,59.0,67.0,62.0,57.0,97,83,63,30.19,30.09,5,0,7,0.00
2012-11-29,82.0,67.9,58.0,65.0,60.2,56.0,94,78,50,30.22,30.11,7,1,13,0.00
2012-11-30,78.0,67.9,60.0,65.0,61.3,58.0,94,80,62,30.20,30.10,5,0,10,0.00
2012-12-1,82.0,67.8,57.0,65.0,59.7,55.0,95,78,48,30.19,30.10,5,1,9,0.00
2012-12-2,82.0,67.4,58.0,67.0,61.5,56.0,96,83,53,30.22,30.12,4,1,11,0.00
2012-12-3,55.0,54.2,54.0,52.0,51.2,51.0,91,90,89,30.19,30.19,0,0,0,0.00
2012-12-4,80.0,64.0,50.0,66.0,57.7,48.0,97,82,54,30.22,30.13,7,0,10,0.00
2012-12-5,78.0,64.9,54.0,68.0,60.9,52.0,96,87,68,30.15,30.01,3,0,4,0.03
2012-12-6,81.0,68.3,60.0,68.0,62.1,-99.9,96,84,62,30.02,29.89,4,0,6,0.07
2012-12-7,85.0,69.2,57.0,70.0,63.9,56.0,97,84,59,29.97,29.87,3,0,5,0.04
2012-12-8,83.0,69.9,60.0,72.0,66.3,59.0,97,89,67,30.02,29.93,3,0,7,0.11
2012-12-9,87.0,72.2,61.0,75.0,68.2,60.0,97,88,63,30.07,29.96,4,0,6,0.01
2012-12-10,86.0,74.9,65.0,76.0,71.4,64.0,97,89,71,30.01,29.87,6,1,11,0.64
2012-12-11,81.0,73.4,70.0,76.0,71.4,68.0,97,93,82,30.03,29.91,4,0,10,3.29
2012-12-12,79.0,75.0,70.0,75.0,72.9,69.0,97,94,86,30.05,29.97,4,0,7,0.01
2012-12-13,72.0,68.7,63.0,69.0,65.1,59.0,96,88,82,30.13,30.01,4,0,7,0.01
2012-12-14,78.0,66.4,60.0,66.0,61.0,57.0,94,84,62,30.14,30.03,5,1,9,0.01
2012-12-15,82.0,68.8,60.0,69.0,63.0,59.0,97,83,60,30.10,29.99,5,0,8,0.01
2012-12-16,84.0,69.3,57.0,70.0,63.7,56.0,97,83,56,30.04,29.91,3,0,6,0.01
2012-12-17,83.0,70.6,60.0,71.0,65.8,59.0,97,86,61,29.97,29.89,7,1,10,0.00
2012-12-18,83.0,70.9,63.0,74.0,66.9,61.0,97,88,67,30.01,29.89,6,1,11,0.01
2012-12-19,84.0,66.6,55.0,66.0,59.5,54.0,96,80,50,30.09,30.00,3,0,4,0.01
2012-12-20,84.0,68.0,55.0,69.0,62.0,54.0,97,83,52,30.07,29.94,6,0,9,0.01
2012-12-21,69.0,62.4,52.0,68.0,49.5,39.0,96,65,38,30.20,29.96,10,2,13,0.09
2012-12-22,68.0,51.3,36.0,44.0,37.8,29.0,92,65,23,30.29,30.19,4,0,9,0.01
2012-12-23,72.0,50.9,32.0,57.0,43.4,30.0,96,79,51,30.24,30.12,3,0,6,0.00
2012-12-24,76.0,60.9,46.0,62.0,54.6,45.0,96,82,56,30.15,29.97,3,0,8,0.00
2012-12-25,80.0,65.1,51.0,65.0,58.3,50.0,97,80,54,30.02,29.89,5,0,7,0.00
2012-12-26,82.0,70.1,61.0,73.0,65.5,57.0,96,86,71,29.99,29.83,14,2,16,0.10
2012-12-27,73.0,57.2,46.0,57.0,49.8,44.0,96,79,40,30.08,29.98,4,0,7,0.01
2012-12-28,79.0,64.0,43.0,70.0,59.3,41.0,97,86,70,30.06,29.92,3,0,7,0.01
2012-12-29,80.0,72.3,60.0,74.0,68.3,55.0,96,88,78,30.13,29.92,8,2,13,0.00
2012-12-30,64.0,55.2,46.0,54.0,47.2,41.0,87,75,52,30.30,30.13,8,1,10,0.00
2012-12-31,78.0,60.6,47.0,62.0,53.7,45.0,96,80,53,30.28,30.15,4,0,9,0.00
2013-1-1,81.0,67.3,56.0,65.0,60.3,54.0,95,80,55,30.19,30.02,10,1,12,0.00